Location: Burera
(21.3780°N, 81.9534°E)
Time: 00:58:15
(UTC+00:00)

Cosmos 1386 Rocket - Pass Details

Date: 13 August 2020
Orbit: 929 x 1006 km, 83.0° (Epoch: 22 September)

Event Time Altitude Azimuth Distance (km) Brightness Sun altitude
Rises 22:09:10 0° 356° (N) 3,576 7.8 -26.9°
Reaches altitude 10° 22:11:38 10° 358° (N) 2,631 7.1 -26.4°
Maximum altitude 22:17:38 83° 86° (E) 942 4.4 -25.2°
Enters shadow 22:22:50 14° 173° (S) 2,334 6.3 -24.1°
